Temp
20 20 20 21 18 16 19 23 24 24 23 22 24 22 21 21 21 20 20 21 21 21 21 21 21 21 21 21 21 20 20 20 20 20 19 20 19 19 19 19 19 19 19 19 18 18 17 17 17
20 21 21 16 17 18 19 23 20 21 23 24 24 22 20 20 20 20 20 20 20 21 21 21 21 21 21 21 21 20 20 20 20 20 20 20 19 19 19 19 19 19 19 18 17 17 17 17 17
20 21 17 17 16 18 21 22 21 22 23 24 24 20 19 19 20 20 19 19 20 21 21 21 21 21 21 21 21 20 20 21 21 20 19 20 19 19 19 19 19 19 19 19 18 17 16 17 18
19 19 16 18 19 23 22 20 21 23 23 23 22 18 19 20 20 20 20 19 20 21 21 22 21 21 21 21 21 20 20 21 21 20 20 19 19 19 19 19 19 19 19 19 18 17 17 18 18
19 15 17 19 21 23 21 22 23 22 22 23 23 19 18 20 20 20 20 19 20 21 21 21 21 21 21 21 20 20 20 20 20 20 20 20 19 19 19 19 19 19 19 19 19 18 18 19 19
16 15 16 18 21 22 21 22 23 22 22 23 22 19 18 20 20 20 20 20 19 20 20 21 20 21 21 20 20 20 20 20 20 20 20 19 19 19 19 19 19 19 19 19 19 18 18 19 19
17 15 17 20 20 22 21 22 18 19 21 21 21 19 18 19 20 20 20 20 20 19 20 20 20 20 20 20 20 20 20 20 20 20 20 19 19 19 19 19 18 18 18 18 18 18 18 19 19
15 15 19 20 20 19 19 21 20 18 20 20 21 18 18 19 20 20 20 20 20 20 19 20 20 20 20 20 20 20 20 20 20 20 20 19 19 19 19 19 18 18 18 18 18 18 18 18 19
17 15 16 16 18 18 18 19 19 19 20 19 21 19 19 20 20 20 20 20 20 20 20 20 20 20 19 20 20 20 20 19 19 19 19 19 19 19 18 18 18 18 18 18 18 18 18 19 19
15 13 17 15 15 16 17 17 17 18 16 20 21 19 20 21 20 20 19 19 19 20 20 19 19 20 20 20 20 20 20 19 19 19 19 19 19 19 19 18 18 18 18 18 18 18 18 18 19
17 15 17 15 15 15 16 16 16 17 17 18 18 18 18 19 18 19 19 19 19 19 19 19 19 19 20 19 19 19 19 19 19 19 19 19 19 19 19 18 18 18 18 18 17 17 18 18 19
16 16 16 16 15 15 15 16 15 16 16 16 16 17 18 17 17 17 18 19 19 19 19 19 19 18 19 19 19 19 19 19 19 19 19 19 19 19 18 18 18 18 18 18 18 18 18 18 18
16 16 16 15 15 15 15 15 15 15 15 15 16 17 15 15 16 18 19 18 18 18 18 18 18 18 18 18 19 19 19 18 19 19 19 19 19 19 19 19 18 18 18 18 18 18 18 18 18
15 15 16 16 16 16 15 14 15 15 16 15 16 16 15 15 16 17 18 18 18 18 18 18 17 18 18 18 18 19 19 19 18 18 19 19 19 19 19 19 18 18 18 18 18 18 18 19 18
15 15 15 15 15 14 14 14 13 14 14 14 15 15 15 15 17 17 18 18 18 18 18 18 17 17 17 17 17 18 18 19 19 18 18 19 19 19 19 19 19 18 18 18 18 18 18 19 19
15 14 13 15 15 13 14 13 15 15 16 14 13 12 13 14 17 18 19 19 19 18 18 17 17 17 17 17 17 17 18 18 19 19 18 18 18 19 19 19 19 19 18 18 18 18 19 19 19
11 12 15 14 15 15 14 12 14 14 14 14 13 12 12 13 15 18 19 18 18 18 18 17 17 16 16 16 16 16 16 17 18 18 18 18 18 19 19 19 19 18 18 18 19 19 19 19 19
10 12 13 14 14 14 12 11 13 13 13 13 13 12 12 13 14 18 19 18 18 18 17 17 17 16 16 15 15 15 16 16 16 17 18 18 18 18 18 18 18 19 18 18 19 19 20 20 20
13 13 13 13 14 12 11 11 12 13 13 13 12 12 12 13 15 17 16 15 15 15 16 16 16 16 16 15 14 14 15 15 16 16 17 18 18 18 18 18 18 18 18 18 19 19 20 20 20
12 12 11 12 12 12 10 11 12 13 13 13 13 13 13 12 11 12 12 13 14 14 14 14 14 15 15 15 14 14 14 14 15 15 16 17 17 18 18 17 17 17 18 18 18 18 19 19 20
11 11 10 11 10 10 10 9 11 15 16 14 15 15 10 10 10 10 11 11 12 12 12 12 12 12 13 14 14 14 13 13 14 15 15 16 17 17 17 18 17 17 17 17 18 18 18 18 19
8 10 10 10 6 5 9 6 8 11 12 14 12 9 9 9 9 10 10 10 10 10 11 11 11 11 12 12 13 13 12 12 13 13 15 16 16 17 18 17 18 17 17 17 17 18 17 18 17
9 11 10 10 4 4 8 4 7 11 13 11 9 10 9 8 8 8 9 9 9 9 9 10 10 10 11 11 12 13 12 12 12 13 14 15 16 16 17 17 17 18 17 17 17 17 17 17 17
11 10 9 9 9 3 7 6 7 10 11 10 9 9 9 8 7 7 8 9 9 9 10 9 9 10 10 10 11 12 12 12 12 12 13 14 15 16 17 17 17 17 18 17 17 18 17 16 17
9 7 3 5 6 6 4 6 8 11 10 10 8 8 8 7 7 7 8 8 9 9 9 9 9 9 11 11 11 12 12 12 12 12 12 13 14 15 16 17 17 17 17 17 17 16 16 16 16
7 8 5 5 6 7 7 7 8 11 10 10 9 8 7 6 5 6 7 8 8 8 8 8 9 9 11 12 12 12 12 11 11 11 12 13 13 15 16 16 16 17 17 16 16 16 16 16 15
10 9 10 8 7 8 6 9 11 10 10 10 9 7 6 6 6 7 7 7 7 7 7 7 7 9 11 13 12 12 12 11 11 11 12 12 13 14 15 16 16 16 17 17 16 16 15 15 15
9 9 9 5 7 7 7 7 8 9 9 9 8 7 7 7 7 7 7 6 6 6 6 6 6 7 8 12 13 12 12 11 11 11 11 12 13 13 14 15 16 16 16 16 16 15 15 15 15
9 8 9 8 8 8 9 8 9 8 9 8 8 7 7 7 7 7 7 6 6 6 6 6 6 6 8 10 12 12 12 12 12 11 11 12 12 13 14 15 15 16 16 16 16 15 15 15 15
10 11 11 7 9 7 10 10 11 10 9 9 8 8 8 8 8 8 7 7 7 6 6 5 5 6 7 8 10 12 12 12 12 12 12 12 12 13 13 14 14 15 15 15 15 15 15 15 15
Height
793 794 795 796 826 833 834 814 793 798 802 798 789 795 810 812 816 831 818 816 816 815 814 816 818 819 821 822 823 825 826 827 828 828 828 829 831 832 832 833 834 834 836 838 838 839 840 840 840
794 795 796 805 834 844 835 802 814 804 796 790 789 800 808 820 813 817 818 816 815 815 815 816 818 819 821 822 824 826 827 829 830 829 830 830 832 833 833 834 835 836 836 838 839 840 841 842 843
795 797 805 817 832 835 825 805 807 800 794 793 797 803 813 822 817 818 819 817 816 815 815 816 818 819 821 823 824 826 828 829 830 831 831 832 832 834 835 836 837 838 839 839 839 841 842 843 845
797 798 806 823 824 805 805 809 801 799 796 795 801 819 816 818 818 820 819 816 816 814 814 816 818 821 822 824 825 827 829 830 830 831 832 833 834 835 836 837 838 839 840 840 841 842 843 844 846
798 805 823 823 817 804 803 800 796 802 802 802 801 820 822 820 820 820 819 817 815 815 815 817 819 821 823 825 826 827 829 830 830 831 832 833 835 836 837 837 838 839 840 841 842 843 844 845 847
807 809 830 830 815 804 804 797 797 803 804 803 808 817 823 821 820 820 820 818 817 816 817 818 820 822 824 825 826 828 829 830 831 831 832 833 835 836 837 838 839 840 841 842 843 843 844 845 847
808 820 825 815 815 810 808 799 813 814 810 812 808 822 824 821 821 821 821 820 819 818 818 818 819 821 823 825 826 827 828 829 831 831 832 833 834 835 837 838 840 841 842 843 843 844 844 845 846
808 817 814 812 814 822 812 806 809 815 817 809 809 825 828 822 822 822 822 822 821 820 819 819 820 821 823 824 825 826 827 828 829 831 831 833 834 835 836 838 839 841 842 843 843 844 845 845 846
803 826 829 828 821 822 815 813 811 812 815 815 814 817 820 821 822 822 822 822 822 822 822 821 820 820 822 822 823 824 825 827 828 829 831 831 832 835 836 837 838 840 842 843 844 844 845 845 846
816 832 826 828 826 827 820 821 821 820 824 818 816 818 818 819 821 822 823 823 823 823 823 822 821 820 819 820 821 822 823 825 826 827 829 830 831 831 835 836 837 838 840 841 843 844 845 845 846
813 827 821 827 825 825 825 825 824 825 827 822 825 823 821 821 822 821 822 822 822 822 822 822 822 821 819 818 818 820 821 822 823 824 826 828 830 832 832 835 836 837 838 839 841 842 843 844 845
821 822 822 824 827 827 829 828 830 827 825 820 820 820 819 820 819 820 821 820 821 820 820 820 820 820 819 818 817 817 818 819 820 821 823 824 826 828 830 830 832 835 836 837 838 840 842 843 844
821 823 822 826 826 827 827 830 832 826 821 818 817 816 817 817 817 817 818 817 818 817 817 817 817 817 817 816 816 815 814 815 816 817 819 820 822 823 826 828 830 831 834 835 836 837 839 840 842
824 823 824 823 825 827 829 831 830 820 816 817 816 816 815 815 815 815 815 814 814 814 814 814 814 814 814 813 813 813 813 812 812 813 814 816 818 820 821 823 826 827 829 831 833 834 836 838 839
824 827 826 827 827 831 830 828 832 820 818 819 817 816 814 813 811 811 810 809 809 809 810 810 810 811 810 810 809 809 810 810 809 809 810 812 814 815 817 819 820 822 825 828 830 832 833 835 837
826 829 836 829 828 832 831 838 823 818 816 818 817 816 814 811 808 806 804 803 804 804 805 806 807 806 806 806 806 805 805 805 806 806 806 807 808 811 812 814 815 818 821 824 827 828 830 831 833
838 842 831 833 827 829 831 835 822 818 817 815 814 812 810 807 803 802 799 799 799 800 801 801 802 802 802 801 802 801 801 800 801 802 802 802 803 804 806 808 811 813 816 819 821 823 825 827 828
851 838 836 833 832 831 833 832 819 815 813 810 806 807 806 803 799 797 797 796 796 796 796 797 797 796 797 797 796 796 796 795 795 796 797 798 798 799 800 802 804 807 810 813 815 817 821 823 825
834 836 839 836 832 834 832 830 817 808 808 805 803 804 802 800 795 795 796 797 796 795 795 794 793 792 791 791 791 790 789 790 790 790 791 793 794 794 795 796 798 801 803 806 809 812 814 817 822
838 840 844 838 833 836 837 822 811 804 800 798 798 799 800 800 800 797 796 793 793 791 790 789 789 788 786 785 783 785 784 784 784 784 785 786 789 789 789 790 791 793 797 800 801 805 808 810 815
842 845 849 849 844 840 839 829 814 796 792 793 793 795 804 805 802 798 795 794 791 787 785 784 783 782 780 778 778 778 778 778 778 778 778 779 782 784 784 785 787 788 790 793 794 799 801 803 806
861 849 849 849 872 885 850 865 834 808 802 798 806 809 809 805 801 798 794 790 787 783 780 777 776 773 772 772 770 770 770 770 771 772 774 774 775 777 779 780 781 783 785 786 788 790 795 797 798
853 845 849 848 879 883 855 885 838 811 804 810 813 810 809 807 804 798 793 788 783 779 774 771 768 764 763 762 763 762 762 763 764 766 768 769 769 771 773 775 776 777 779 781 781 784 787 789 791
848 848 852 850 856 903 860 868 848 819 813 815 813 810 808 805 799 796 790 784 777 773 768 764 760 756 753 752 753 753 753 756 758 760 761 762 763 764 766 768 770 771 773 775 776 778 778 782 783
852 865 904 892 883 882 873 867 835 813 817 818 819 814 810 807 801 793 785 778 771 767 762 758 754 749 744 744 744 745 747 750 752 753 754 756 757 758 760 763 764 765 767 769 772 773 774 776 777
863 860 884 898 887 872 856 859 833 814 817 816 816 815 810 804 798 790 783 776 770 764 759 754 749 742 739 737 738 739 742 744 746 747 749 750 752 753 756 758 759 761 762 764 766 767 769 772 770
851 856 851 864 865 860 864 829 812 813 812 810 809 808 805 799 792 785 779 773 767 760 755 749 744 737 733 732 733 733 734 736 737 739 742 745 747 748 751 753 754 755 756 758 760 761 762 764 765
853 853 858 881 875 876 851 846 835 818 814 807 805 806 802 795 789 783 777 771 764 758 751 745 740 735 729 728 728 728 729 731 732 734 736 739 741 744 746 747 748 750 751 753 754 756 756 758 760
854 859 853 856 857 863 851 839 821 821 814 809 809 807 802 795 788 783 776 770 764 756 748 742 737 732 727 725 725 725 726 728 729 730 732 734 736 739 741 742 744 745 746 748 750 750 750 752 753
840 838 841 865 855 860 842 821 808 808 808 808 809 805 799 794 788 782 776 770 763 755 747 740 734 730 725 723 722 721 723 725 726 727 728 731 733 736 737 739 740 741 742 744 745 745 746 746 747
Wind_Speed
4 3 3 3 4 5 3 4 1 5 5 3 3 9 11 3 5 5 5 11 5 4 3 13 13 13 11 10 11 11 8 9 7 6 10 11 12 10 7 6 6 10 18 17 16 15 15 15 16
2 2 1 2 4 3 4 2 4 4 3 3 7 6 8 4 5 4 1 11 8 3 8 12 14 13 11 10 12 12 9 9 6 4 9 10 11 10 10 13 14 18 18 15 15 15 15 14 16
3 3 3 4 3 4 4 4 6 2 5 4 4 7 4 2 4 3 8 6 5 4 10 10 12 13 11 11 11 13 11 9 6 3 7 9 11 11 12 14 16 16 12 13 14 14 14 14 16
5 5 4 4 4 3 5 7 6 3 7 7 4 7 4 5 3 4 7 6 7 8 10 9 11 12 11 11 11 12 11 10 7 3 7 9 9 9 11 13 14 12 11 11 13 13 13 14 17
2 3 3 1 2 1 3 5 4 4 4 4 3 4 4 6 10 7 11 9 11 9 9 11 8 11 11 10 10 11 11 11 8 6 7 9 9 9 8 11 12 12 11 11 11 12 12 14 16
3 3 3 2 2 2 3 5 4 3 4 2 6 5 3 10 9 8 11 12 11 11 8 10 8 9 10 10 10 10 10 9 8 7 8 10 9 10 8 10 11 11 11 10 10 11 12 13 16
4 3 3 3 4 3 2 3 5 4 5 4 1 4 3 6 7 8 8 11 12 10 10 10 8 8 9 10 10 9 9 9 8 8 10 10 10 11 10 10 11 10 10 9 9 10 10 12 14
3 3 2 3 3 2 5 3 4 8 3 6 2 3 4 4 6 6 7 9 11 10 9 11 8 7 8 10 11 11 10 10 9 10 11 10 11 11 12 12 13 12 10 9 8 9 9 10 12
3 4 0 5 5 2 6 4 6 3 3 5 3 4 8 9 6 5 4 5 6 8 8 6 10 11 6 8 10 12 13 12 11 11 13 13 12 12 13 14 14 13 11 10 8 10 9 10 12
4 4 2 3 3 4 4 7 5 5 7 3 2 6 10 10 5 4 4 5 6 5 3 4 3 4 7 7 10 12 15 15 15 15 15 16 15 15 13 16 16 16 13 13 12 10 10 10 12
0 3 2 3 4 6 4 5 5 4 3 2 2 4 4 5 6 6 6 8 8 7 8 6 6 6 4 5 8 11 14 18 19 18 18 19 18 17 16 18 17 17 16 17 16 13 13 11 12
5 6 4 4 3 3 2 4 6 1 7 6 6 5 3 5 7 7 9 11 12 10 12 14 12 12 9 8 9 10 14 17 21 22 21 21 21 21 22 22 23 21 20 19 19 17 15 14 12
4 3 4 6 4 2 2 3 4 8 10 10 12 10 9 7 11 13 13 14 15 16 16 18 17 16 16 14 12 13 11 17 20 23 26 24 23 25 26 26 26 24 22 21 21 19 18 18 17
2 3 2 3 3 3 1 3 2 7 7 8 8 8 7 8 13 13 14 15 16 17 19 17 17 19 19 20 19 18 17 15 18 22 28 29 27 27 27 30 28 27 25 24 23 21 19 20 20
2 2 1 4 2 1 1 5 6 10 9 8 6 7 8 9 18 18 21 22 22 20 18 19 20 17 18 21 24 24 22 20 17 22 25 28 31 31 30 30 31 30 28 25 25 23 21 20 20
2 3 3 2 3 2 3 7 3 5 1 8 9 8 8 11 18 25 28 28 26 23 20 19 20 22 23 24 25 27 27 26 25 21 24 27 30 34 35 33 33 32 31 29 28 28 28 27 26
5 2 1 1 2 2 2 6 8 6 8 14 10 10 10 10 16 20 18 14 12 11 15 19 20 21 24 25 27 26 26 29 30 28 24 27 30 33 35 36 35 34 33 33 31 30 32 29 25
3 2 3 2 4 2 6 12 12 10 10 13 13 9 9 9 10 16 15 10 11 17 18 19 22 23 23 24 24 27 31 33 30 33 30 28 29 34 35 36 38 36 37 36 33 30 32 31 28
4 3 0 4 2 5 7 10 16 18 12 14 12 7 7 8 10 10 9 14 15 15 15 20 24 25 26 26 27 29 30 32 35 34 35 30 30 31 35 36 38 39 37 36 34 30 33 30 28
5 2 3 6 6 4 9 19 18 18 12 11 10 5 4 8 10 14 19 23 25 21 20 21 23 29 30 29 29 28 27 28 33 36 38 37 31 30 33 37 35 37 38 33 35 32 27 30 31
4 2 3 3 7 2 11 8 6 3 1 4 3 1 10 8 11 13 21 24 27 27 27 26 28 27 27 33 31 30 30 30 30 30 35 38 39 36 33 35 36 34 35 33 35 34 30 26 32
1 2 3 4 5 3 5 5 6 7 8 4 10 9 9 11 12 11 18 23 24 25 29 34 34 32 34 28 34 33 27 25 27 28 29 34 35 37 41 34 37 37 36 33 34 35 33 29 25
3 1 3 2 1 4 2 2 7 6 5 5 9 11 10 10 10 13 19 23 26 30 29 28 29 30 32 32 32 35 32 30 33 33 34 28 30 36 35 38 35 39 36 36 37 34 34 36 29
4 3 3 2 1 2 5 4 6 2 3 5 8 12 14 15 16 17 23 26 27 28 26 26 26 28 30 31 33 36 33 31 28 31 32 34 34 28 33 34 36 35 37 38 36 38 38 34 34
6 3 3 4 3 5 4 2 8 4 5 3 7 14 15 17 17 16 17 22 24 25 24 21 23 27 25 27 31 33 32 33 31 31 29 30 33 34 28 33 29 37 37 35 34 31 34 38 34
2 2 3 3 1 5 4 5 5 4 2 4 5 10 13 15 14 15 18 22 23 24 25 24 25 25 22 22 25 27 28 30 32 31 31 32 31 31 30 34 30 32 32 32 32 33 36 34 29
2 2 1 0 1 2 3 6 2 10 14 14 15 16 16 16 15 16 20 21 22 21 22 21 23 22 20 20 20 23 25 29 31 32 32 33 30 31 29 28 29 29 33 36 32 32 34 33 33
3 1 2 1 2 4 5 5 4 11 13 15 17 17 17 17 16 14 16 21 21 21 20 19 19 20 18 19 18 24 25 26 28 29 31 32 33 25 27 24 25 22 19 25 29 30 32 35 32
3 2 3 1 2 3 4 5 4 5 7 11 13 14 15 16 15 14 17 19 19 20 20 18 18 19 16 9 16 19 18 18 22 25 27 28 28 28 24 25 26 25 21 21 19 22 28 29 31
5 6 5 3 3 3 3 6 6 5 1 5 8 11 13 13 14 14 17 18 17 19 21 21 20 19 16 12 10 15 16 16 19 21 22 22 24 24 26 24 23 26 27 28 25 22 23 25 29
Wind_Direction
124 141 326 29 72 68 255 257 222 35 37 310 319 84 110 56 37 128 156 25 44 357 245 183 178 170 174 173 160 148 144 133 120 108 110 116 112 101 90 122 105 113 121 108 105 104 101 100 102
106 46 197 82 99 104 265 221 98 58 178 345 42 72 39 70 28 83 3 7 31 346 188 182 176 175 175 171 162 156 156 135 132 126 120 127 121 102 95 113 113 119 118 114 109 108 106 104 108
25 348 84 119 135 169 198 104 132 62 38 52 74 54 74 18 16 87 355 11 39 97 164 171 181 178 175 172 169 164 160 147 149 142 126 137 133 112 121 118 122 124 117 109 111 111 110 109 118
358 10 19 104 207 280 114 154 133 81 18 38 111 69 60 49 77 78 18 53 63 80 160 186 182 179 173 171 173 169 163 165 178 165 140 143 143 126 132 133 133 127 122 118 117 117 116 114 122
245 71 67 93 249 160 67 133 91 88 136 43 40 136 99 69 92 73 48 58 72 80 130 171 173 180 177 175 176 170 172 184 189 179 161 154 156 147 144 146 146 134 128 127 124 123 122 122 132
19 96 78 176 205 104 34 41 71 96 86 40 62 98 114 115 89 65 53 59 71 83 98 153 165 184 190 183 184 186 189 199 202 195 175 163 160 168 164 161 158 146 137 133 132 133 134 131 141
108 85 190 195 152 135 111 50 53 326 73 6 12 74 123 86 100 76 79 56 62 83 108 122 159 179 194 199 195 199 199 205 207 202 184 184 187 177 181 171 170 160 150 146 144 144 146 142 146
93 101 341 244 175 84 329 67 110 56 16 317 50 113 169 184 118 97 77 64 52 56 100 105 133 174 201 205 210 211 211 210 212 203 194 194 189 189 191 181 177 172 171 164 163 161 158 156 153
55 65 260 353 39 127 10 54 359 147 70 1 58 98 143 142 131 92 60 44 40 37 41 94 121 126 187 222 225 224 219 216 216 210 205 200 196 204 199 192 187 186 185 181 182 177 174 167 161
75 92 94 10 11 21 59 61 6 38 9 328 48 101 153 161 139 80 25 350 331 335 0 6 345 172 159 174 227 227 228 223 218 215 210 210 208 199 212 201 198 196 193 189 192 196 187 182 173
109 102 136 51 55 25 24 28 350 39 328 139 25 328 1 5 1 356 328 312 300 291 285 287 301 292 214 186 191 221 230 230 226 221 216 214 212 212 206 209 204 201 197 194 197 200 198 192 187
110 72 78 128 63 36 31 331 340 280 237 277 302 275 292 326 312 309 308 299 300 290 282 281 281 283 276 252 218 216 233 234 228 226 221 218 212 209 218 209 206 209 206 203 204 207 205 198 186
61 100 72 128 131 195 277 269 247 261 271 286 293 298 298 300 293 295 285 278 279 279 285 285 284 273 271 269 256 235 230 233 235 230 224 222 215 210 215 215 212 211 213 212 212 213 210 208 207
83 87 76 110 160 53 245 268 29 262 267 257 254 258 280 278 276 275 273 273 268 271 276 283 280 278 271 268 264 257 242 235 238 236 231 224 221 216 215 214 216 218 217 220 218 215 213 212 213
58 66 239 240 138 127 257 295 206 259 264 276 272 271 275 273 276 263 266 264 263 265 268 272 273 271 271 268 264 258 254 245 241 236 236 233 225 221 219 218 220 222 220 218 219 219 218 215 213
54 61 92 273 133 253 79 267 248 265 317 276 269 270 271 273 273 277 272 261 262 259 262 272 274 274 271 269 266 264 258 253 248 244 238 233 232 228 226 224 224 222 223 217 218 220 219 223 224
18 130 103 224 188 168 158 263 231 254 284 279 260 248 250 258 265 270 276 258 247 251 271 278 277 272 270 267 263 263 263 257 251 248 246 238 231 229 228 228 226 223 220 217 220 226 220 217 219
183 94 347 8 324 278 270 253 277 264 256 264 263 258 255 254 249 262 277 244 261 272 265 269 277 277 270 267 266 265 262 260 256 250 248 247 241 233 229 227 227 222 217 219 221 226 215 220 220
106 102 352 277 47 345 258 285 281 280 271 264 271 267 281 284 274 285 4 357 350 337 303 274 273 276 274 267 264 263 260 260 258 252 248 247 246 243 233 230 228 224 214 215 219 222 215 217 221
58 63 311 298 13 356 309 293 274 273 265 252 254 261 320 3 9 355 347 340 332 323 314 307 296 277 268 264 261 258 261 262 261 260 253 249 245 244 241 232 224 219 219 219 219 219 214 216 214
41 37 12 312 336 289 339 299 338 307 107 136 143 63 33 13 351 340 333 325 318 314 309 301 293 290 286 263 259 255 256 259 257 255 255 251 249 243 243 240 231 222 218 220 220 218 212 207 210
71 40 11 347 40 288 63 285 310 303 317 45 33 14 3 345 334 324 319 315 309 302 300 296 293 286 279 276 255 245 240 245 248 252 257 254 249 248 244 244 239 232 224 221 220 216 218 213 202
188 2 276 283 133 41 332 40 273 298 68 29 11 355 343 333 317 313 311 307 304 298 292 292 289 286 281 271 258 244 239 242 250 253 253 254 251 245 245 244 246 243 234 234 224 220 217 217 214
343 335 346 160 35 8 242 142 284 344 5 345 343 345 339 330 326 316 309 302 296 289 285 286 289 282 276 264 256 244 236 239 243 249 250 252 249 248 243 244 243 248 248 242 240 237 221 218 216
30 41 352 354 2 228 283 76 247 302 53 27 340 338 332 328 321 311 311 306 304 299 298 298 297 294 279 256 250 245 240 244 242 245 246 247 249 247 245 243 245 244 249 252 245 242 234 226 220
162 150 135 220 342 275 356 242 257 116 155 3 330 336 332 327 319 312 310 312 310 310 311 306 300 294 279 261 250 244 246 248 248 245 246 249 249 249 249 247 250 249 250 250 246 243 245 241 238
129 54 135 196 267 284 244 276 243 5 356 345 350 346 338 333 328 323 324 319 317 316 315 318 314 301 288 260 249 244 241 239 242 244 246 245 250 251 252 250 245 254 253 252 251 249 248 244 241
100 69 145 31 352 303 293 282 246 346 327 345 350 346 337 334 330 331 330 325 323 318 318 318 320 317 315 258 255 249 241 241 242 245 244 246 246 252 248 244 245 250 253 253 255 255 252 248 245
149 226 215 249 174 213 311 269 188 257 331 348 340 332 326 328 324 327 323 321 323 322 328 328 325 319 314 305 261 239 241 243 243 242 243 242 245 244 248 248 247 253 260 262 262 257 253 254 244
168 198 176 133 252 237 214 268 194 198 296 357 326 317 317 311 318 322 328 332 351 350 349 349 344 337 315 301 315 245 238 240 240 241 244 246 248 250 252 255 256 256 260 264 266 263 260 255 249